TimeCST,TemperatureF,Dew PointF,Humidity,Sea Level PressureIn,VisibilityMPH,Wind Direction,Wind SpeedMPH,Gust SpeedMPH,PrecipitationIn,Events,Conditions,WindDirDegrees,DateUTC
12:15 AM,32.2,29.7,90,30.24,10.0,NNW,4.6,-,N/A,,Scattered Clouds,330,2013-01-17 06:15:00
12:35 AM,32.0,29.8,92,30.24,10.0,North,5.8,-,N/A,,Scattered Clouds,10,2013-01-17 06:35:00
12:55 AM,32.0,29.8,92,30.26,10.0,North,8.1,-,N/A,,Mostly Cloudy,10,2013-01-17 06:55:00
1:15 AM,32.4,30.2,92,30.29,10.0,North,8.1,-,N/A,,Mostly Cloudy,10,2013-01-17 07:15:00
1:35 AM,31.8,28.9,89,30.29,10.0,NNE,8.1,-,N/A,,Overcast,20,2013-01-17 07:35:00
2:15 AM,29.1,26.8,91,30.30,10.0,Calm,Calm,-,N/A,,Clear,0,2013-01-17 08:15:00
2:35 AM,27.5,25.5,92,30.31,10.0,WNW,5.8,-,N/A,,Clear,300,2013-01-17 08:35:00
2:55 AM,26.6,25.0,94,30.31,7.0,WNW,5.8,-,N/A,,Clear,290,2013-01-17 08:55:00
3:15 AM,27.9,26.4,94,30.32,10.0,NW,8.1,-,N/A,,Clear,310,2013-01-17 09:15:00
3:35 AM,27.3,25.7,94,30.33,10.0,NW,8.1,-,N/A,,Clear,310,2013-01-17 09:35:00
3:55 AM,27.1,25.5,94,30.33,10.0,NW,9.2,-,N/A,,Clear,310,2013-01-17 09:55:00
4:15 AM,26.6,24.8,93,30.33,10.0,WNW,6.9,-,N/A,,Clear,300,2013-01-17 10:15:00
4:35 AM,25.5,23.7,93,30.34,10.0,WNW,8.1,-,N/A,,Clear,300,2013-01-17 10:35:00
4:55 AM,25.7,23.7,92,30.35,10.0,NW,8.1,-,N/A,,Clear,310,2013-01-17 10:55:00
5:15 AM,24.8,22.6,91,30.36,10.0,NW,5.8,-,N/A,,Clear,310,2013-01-17 11:15:00
5:35 AM,24.4,22.5,92,30.36,10.0,West,4.6,-,N/A,,Clear,280,2013-01-17 11:35:00
5:55 AM,24.3,22.5,93,30.37,10.0,West,3.5,-,N/A,,Clear,260,2013-01-17 11:55:00
6:15 AM,24.4,22.8,94,30.37,7.0,WNW,3.5,-,N/A,,Clear,300,2013-01-17 12:15:00
6:35 AM,24.8,23.4,94,30.37,4.0,WNW,3.5,-,N/A,,Clear,300,2013-01-17 12:35:00
6:55 AM,23.4,22.1,95,30.38,4.0,WNW,4.6,-,N/A,,Clear,290,2013-01-17 12:55:00
7:15 AM,23.7,22.5,95,30.38,2.5,WNW,3.5,-,N/A,,Clear,290,2013-01-17 13:15:00
7:35 AM,23.4,22.1,95,30.38,2.5,Calm,Calm,-,N/A,,Clear,0,2013-01-17 13:35:00
7:55 AM,24.4,23.0,94,30.39,1.2,Calm,Calm,-,N/A,,Mist,0,2013-01-17 13:55:00
8:15 AM,22.8,21.2,93,30.41,1.5,Calm,Calm,-,N/A,,Mist,0,2013-01-17 14:15:00
8:35 AM,24.4,23.0,94,30.41,3.0,NE,3.5,-,N/A,,Scattered Clouds,50,2013-01-17 14:35:00
8:55 AM,26.2,24.8,94,30.42,5.0,Calm,Calm,-,N/A,,Clear,0,2013-01-17 14:55:00
9:15 AM,27.1,25.9,95,30.43,7.0,ESE,3.5,-,N/A,,Clear,110,2013-01-17 15:15:00
9:35 AM,28.4,26.6,93,30.43,10.0,East,3.5,-,N/A,,Clear,100,2013-01-17 15:35:00
9:55 AM,29.1,25.5,86,30.45,10.0,Calm,Calm,-,N/A,,Clear,0,2013-01-17 15:55:00
10:15 AM,30.2,26.4,86,30.46,10.0,Calm,Calm,-,N/A,,Clear,0,2013-01-17 16:15:00
10:35 AM,31.5,26.6,82,30.46,10.0,Calm,Calm,-,N/A,,Clear,0,2013-01-17 16:35:00
10:55 AM,32.2,27.3,82,30.46,10.0,SW,3.5,-,N/A,,Clear,220,2013-01-17 16:55:00
11:15 AM,33.8,28.6,81,30.45,10.0,SW,6.9,-,N/A,,Scattered Clouds,220,2013-01-17 17:15:00
11:35 AM,32.4,28.8,87,30.44,5.0,SSW,6.9,-,N/A,,Scattered Clouds,210,2013-01-17 17:35:00
11:55 AM,33.3,28.9,84,30.44,5.0,SSW,4.6,-,N/A,,Scattered Clouds,210,2013-01-17 17:55:00
12:15 PM,32.0,28.6,87,30.43,4.0,SSW,3.5,-,N/A,,Mostly Cloudy,210,2013-01-17 18:15:00
12:35 PM,32.0,29.1,89,30.42,3.0,SW,4.6,-,N/A,,Overcast,220,2013-01-17 18:35:00
12:55 PM,32.0,29.5,90,30.42,4.0,West,3.5,-,N/A,,Overcast,280,2013-01-17 18:55:00
1:15 PM,32.0,29.8,92,30.42,4.0,Calm,Calm,-,N/A,,Overcast,0,2013-01-17 19:15:00
1:35 PM,32.5,30.7,93,30.41,4.0,West,4.6,-,N/A,,Overcast,280,2013-01-17 19:35:00
1:55 PM,33.1,31.1,92,30.40,4.0,Calm,Calm,-,N/A,,Overcast,0,2013-01-17 19:55:00
2:15 PM,34.7,32.0,90,30.39,5.0,SSW,4.6,-,N/A,,Overcast,210,2013-01-17 20:15:00
2:35 PM,35.1,32.0,89,30.38,7.0,SSW,4.6,-,N/A,,Overcast,210,2013-01-17 20:35:00
2:55 PM,36.5,32.0,84,30.38,7.0,Calm,Calm,-,N/A,,Mostly Cloudy,0,2013-01-17 20:55:00
3:15 PM,37.0,32.0,82,30.38,10.0,Calm,Calm,-,N/A,,Clear,0,2013-01-17 21:15:00
3:35 PM,37.8,32.0,80,30.39,10.0,Calm,Calm,-,N/A,,Clear,0,2013-01-17 21:35:00
3:55 PM,37.6,32.0,80,30.39,10.0,Calm,Calm,-,N/A,,Clear,0,2013-01-17 21:55:00
4:55 PM,36.1,31.5,83,30.38,10.0,Calm,Calm,-,N/A,,Clear,0,2013-01-17 22:55:00
5:35 PM,34.0,31.5,90,30.39,10.0,Calm,Calm,-,N/A,,Clear,0,2013-01-17 23:35:00
7:55 PM,29.8,28.4,94,30.37,5.0,SSE,3.5,-,N/A,,Clear,160,2013-01-18 01:55:00
8:15 PM,30.4,29.3,96,30.36,7.0,SSE,4.6,-,N/A,,Clear,160,2013-01-18 02:15:00
8:55 PM,31.3,30.2,96,30.35,5.0,ESE,5.8,-,N/A,,Clear,120,2013-01-18 02:55:00
9:15 PM,30.0,28.4,94,30.34,4.0,SE,5.8,-,N/A,,Clear,130,2013-01-18 03:15:00
9:35 PM,30.2,28.9,95,30.34,4.0,SE,5.8,-,N/A,,Clear,140,2013-01-18 03:35:00
9:55 PM,30.0,28.8,95,30.33,4.0,SE,8.1,-,N/A,,Clear,140,2013-01-18 03:55:00
11:15 PM,32.4,30.0,91,30.30,10.0,SSE,10.4,-,N/A,,Clear,160,2013-01-18 05:15:00
11:35 PM,32.4,29.3,88,30.30,10.0,SSE,10.4,-,N/A,,Clear,160,2013-01-18 05:35:00
11:55 PM,32.2,29.1,88,30.29,10.0,SSE,10.4,-,N/A,,Clear,160,2013-01-18 05:55:00